QPF
0.00 0.00 0.00 0.00 0.00 0.01 0.00 0.00 0.00 0.00 0.00 0.00 0.01 0.03 0.03 0.02 0.01 0.01 0.01 0.01 0.01 0.01 0.01 0.01 0.01 0.01 0.01 0.02 0.01 0.02 0.02 0.02 0.03 0.03 0.04 0.04 0.04 0.03 0.03 0.04 0.04 0.04 0.03 0.02
0.00 0.00 0.00 0.00 0.00 0.01 0.00 0.00 0.00 0.00 0.00 0.01 0.02 0.01 0.01 0.01 0.01 0.01 0.02 0.02 0.02 0.02 0.01 0.01 0.01 0.01 0.01 0.01 0.02 0.02 0.01 0.02 0.03 0.03 0.04 0.04 0.03 0.03 0.04 0.03 0.05 0.05 0.03 0.03
0.00 0.00 0.00 0.00 0.00 0.01 0.00 0.00 0.00 0.00 0.00 0.01 0.01 0.00 0.00 0.00 0.02 0.03 0.03 0.03 0.02 0.02 0.01 0.01 0.01 0.01 0.01 0.01 0.01 0.01 0.01 0.02 0.03 0.04 0.04 0.04 0.03 0.03 0.03 0.04 0.05 0.06 0.04 0.04
0.00 0.00 0.00 0.00 0.00 0.00 0.00 0.00 0.00 0.00 0.00 0.00 0.00 0.00 0.01 0.01 0.03 0.04 0.03 0.02 0.02 0.02 0.01 0.01 0.01 0.01 0.01 0.01 0.01 0.01 0.02 0.03 0.04 0.04 0.04 0.05 0.05 0.03 0.04 0.04 0.04 0.06 0.05 0.03
0.00 0.00 0.00 0.00 0.00 0.00 0.00 0.00 0.00 0.00 0.00 0.00 0.00 0.01 0.01 0.01 0.01 0.01 0.01 0.01 0.02 0.01 0.01 0.01 0.01 0.01 0.01 0.00 0.00 0.01 0.02 0.02 0.02 0.03 0.03 0.04 0.04 0.04 0.04 0.03 0.03 0.03 0.05 0.05
0.00 0.00 0.00 0.00 0.00 0.00 0.00 0.00 0.00 0.00 0.00 0.00 0.01 0.03 0.04 0.02 0.03 0.02 0.01 0.01 0.01 0.01 0.01 0.01 0.01 0.00 0.01 0.01 0.01 0.01 0.01 0.01 0.02 0.03 0.03 0.03 0.02 0.03 0.03 0.02 0.02 0.02 0.03 0.03
0.00 0.00 0.00 0.00 0.00 0.00 0.00 0.00 0.00 0.00 0.00 0.00 0.01 0.04 0.04 0.03 0.03 0.02 0.01 0.01 0.01 0.01 0.01 0.01 0.01 0.01 0.00 0.00 0.00 0.01 0.01 0.01 0.01 0.02 0.02 0.02 0.02 0.02 0.02 0.01 0.03 0.06 0.06 0.03
0.00 0.01 0.00 0.00 0.00 0.00 0.00 0.00 0.00 0.00 0.00 0.01 0.01 0.03 0.03 0.02 0.03 0.01 0.00 0.01 0.01 0.01 0.01 0.01 0.01 0.01 0.00 0.00 0.00 0.00 0.01 0.01 0.01 0.01 0.01 0.01 0.01 0.01 0.01 0.01 0.01 0.03 0.03 0.01
0.01 0.01 0.00 0.00 0.00 0.00 0.00 0.00 0.00 0.00 0.00 0.01 0.02 0.03 0.03 0.02 0.02 0.00 0.01 0.01 0.00 0.00 0.01 0.00 0.01 0.00 0.00 0.00 0.00 0.00 0.01 0.01 0.01 0.01 0.01 0.01 0.00 0.00 0.00 0.01 0.01 0.02 0.01 0.01
0.00 0.00 0.00 0.00 0.00 0.00 0.00 0.00 0.00 0.00 0.00 0.01 0.02 0.03 0.02 0.02 0.02 0.01 0.00 0.00 0.00 0.00 0.00 0.00 0.00 0.00 0.00 0.00 0.00 0.01 0.01 0.01 0.02 0.01 0.01 0.01 0.00 0.00 0.00 0.01 0.01 0.01 0.01 0.01
0.00 0.00 0.00 0.00 0.00 0.00 0.00 0.00 0.00 0.00 0.00 0.00 0.01 0.02 0.02 0.02 0.01 0.01 0.00 0.01 0.01 0.01 0.01 0.01 0.00 0.00 0.00 0.01 0.01 0.01 0.02 0.03 0.02 0.02 0.02 0.01 0.01 0.01 0.01 0.01 0.01 0.01 0.01 0.01
0.01 0.00 0.00 0.00 0.00 0.00 0.00 0.00 0.00 0.00 0.00 0.00 0.01 0.01 0.01 0.01 0.01 0.01 0.01 0.01 0.01 0.01 0.01 0.01 0.01 0.01 0.01 0.01 0.01 0.01 0.02 0.02 0.02 0.01 0.02 0.02 0.01 0.01 0.01 0.01 0.01 0.01 0.01 0.02
0.00 0.00 0.00 0.00 0.00 0.00 0.00 0.00 0.00 0.00 0.00 0.01 0.01 0.01 0.01 0.01 0.01 0.02 0.01 0.01 0.01 0.01 0.01 0.01 0.01 0.01 0.01 0.01 0.01 0.02 0.03 0.02 0.02 0.01 0.01 0.02 0.02 0.02 0.01 0.01 0.01 0.01 0.01 0.01
0.00 0.00 0.01 0.01 0.01 0.00 0.00 0.00 0.00 0.00 0.00 0.00 0.01 0.01 0.01 0.01 0.01 0.02 0.02 0.01 0.02 0.02 0.02 0.01 0.01 0.01 0.01 0.01 0.02 0.02 0.04 0.03 0.03 0.02 0.01 0.01 0.02 0.02 0.01 0.01 0.01 0.01 0.01 0.01
0.00 0.00 0.00 0.01 0.01 0.01 0.00 0.00 0.00 0.00 0.00 0.00 0.01 0.01 0.02 0.02 0.02 0.02 0.01 0.01 0.01 0.01 0.01 0.01 0.01 0.01 0.01 0.01 0.01 0.02 0.03 0.03 0.02 0.01 0.01 0.01 0.01 0.02 0.02 0.01 0.01 0.02 0.01 0.01
0.00 0.00 0.00 0.00 0.01 0.01 0.01 0.00 0.00 0.00 0.00 0.00 0.01 0.03 0.04 0.04 0.03 0.02 0.02 0.01 0.00 0.00 0.00 0.00 0.01 0.01 0.01 0.01 0.01 0.02 0.02 0.02 0.01 0.01 0.00 0.01 0.01 0.03 0.03 0.02 0.02 0.01 0.01 0.02
0.00 0.00 0.00 0.00 0.00 0.01 0.01 0.01 0.01 0.01 0.01 0.00 0.01 0.03 0.04 0.03 0.03 0.03 0.02 0.01 0.01 0.01 0.01 0.01 0.00 0.00 0.00 0.01 0.02 0.02 0.01 0.01 0.01 0.01 0.01 0.01 0.02 0.03 0.04 0.02 0.02 0.02 0.01 0.01
0.00 0.00 0.00 0.00 0.00 0.00 0.01 0.01 0.01 0.01 0.01 0.01 0.01 0.03 0.04 0.03 0.03 0.04 0.04 0.03 0.01 0.01 0.01 0.01 0.00 0.00 0.00 0.01 0.02 0.02 0.01 0.00 0.01 0.01 0.01 0.01 0.02 0.03 0.03 0.03 0.02 0.02 0.02 0.01
0.00 0.00 0.00 0.00 0.00 0.00 0.00 0.01 0.01 0.02 0.02 0.01 0.01 0.03 0.04 0.03 0.04 0.04 0.04 0.03 0.02 0.01 0.01 0.01 0.01 0.01 0.01 0.01 0.02 0.01 0.00 0.00 0.01 0.01 0.01 0.01 0.01 0.01 0.02 0.03 0.02 0.02 0.02 0.02
0.01 0.00 0.01 0.00 0.00 0.00 0.00 0.00 0.00 0.01 0.02 0.02 0.01 0.03 0.05 0.05 0.04 0.04 0.04 0.04 0.02 0.01 0.01 0.01 0.01 0.01 0.01 0.01 0.01 0.01 0.01 0.01 0.01 0.01 0.01 0.01 0.01 0.01 0.02 0.02 0.02 0.02 0.02 0.02
0.02 0.02 0.02 0.02 0.01 0.00 0.00 0.00 0.00 0.00 0.01 0.01 0.02 0.02 0.05 0.07 0.05 0.04 0.05 0.05 0.04 0.03 0.02 0.02 0.02 0.01 0.01 0.02 0.02 0.01 0.01 0.01 0.02 0.02 0.01 0.02 0.01 0.01 0.02 0.02 0.03 0.03 0.03 0.02
0.02 0.02 0.02 0.02 0.01 0.01 0.01 0.00 0.00 0.01 0.01 0.01 0.02 0.02 0.05 0.08 0.07 0.05 0.04 0.05 0.06 0.07 0.05 0.03 0.03 0.02 0.02 0.03 0.04 0.03 0.02 0.02 0.02 0.02 0.02 0.02 0.02 0.02 0.02 0.03 0.04 0.04 0.04 0.03
0.02 0.01 0.01 0.02 0.02 0.02 0.02 0.02 0.02 0.02 0.02 0.02 0.02 0.02 0.04 0.06 0.07 0.06 0.05 0.05 0.04 0.05 0.05 0.06 0.05 0.03 0.03 0.03 0.05 0.06 0.06 0.04 0.03 0.03 0.03 0.03 0.02 0.02 0.03 0.04 0.04 0.05 0.05 0.05
0.02 0.02 0.02 0.03 0.03 0.03 0.03 0.04 0.04 0.03 0.03 0.03 0.03 0.03 0.04 0.05 0.06 0.07 0.05 0.04 0.04 0.03 0.02 0.03 0.04 0.03 0.02 0.02 0.02 0.02 0.02 0.02 0.02 0.03 0.03 0.04 0.04 0.04 0.04 0.04 0.04 0.05 0.06 0.06
0.02 0.02 0.02 0.03 0.03 0.04 0.03 0.03 0.03 0.03 0.03 0.03 0.04 0.04 0.04 0.05 0.06 0.06 0.04 0.02 0.02 0.02 0.02 0.02 0.02 0.02 0.01 0.01 0.02 0.02 0.02 0.02 0.02 0.02 0.02 0.03 0.04 0.05 0.05 0.05 0.05 0.05 0.05 0.05
0.01 0.01 0.01 0.02 0.02 0.03 0.03 0.03 0.03 0.03 0.02 0.03 0.03 0.03 0.03 0.03 0.04 0.05 0.05 0.03 0.02 0.02 0.02 0.01 0.02 0.02 0.02 0.02 0.02 0.02 0.02 0.02 0.02 0.01 0.01 0.01 0.01 0.02 0.02 0.02 0.02 0.02 0.02 0.02
0.01 0.01 0.01 0.01 0.01 0.01 0.02 0.01 0.01 0.01 0.01 0.01 0.02 0.02 0.02 0.02 0.02 0.03 0.05 0.05 0.03 0.02 0.01 0.01 0.01 0.01 0.01 0.01 0.01 0.01 0.01 0.02 0.02 0.02 0.02 0.02 0.01 0.01 0.01 0.02 0.02 0.02 0.03 0.03
MSLP
1017.30 1017.70 1018.05 1018.36 1018.60 1018.80 1018.94 1019.06 1019.16 1019.26 1019.39 1019.55 1019.75 1020.00 1020.29 1020.60 1020.92 1021.24 1021.53 1021.80 1022.04 1022.25 1022.44 1022.62 1022.80 1022.99 1023.20 1023.43 1023.69 1023.98 1024.29 1024.62 1024.97 1025.34 1025.72 1026.10 1026.47 1026.83 1027.16 1027.45 1027.71 1027.94 1028.15 1028.34
1017.65 1018.01 1018.29 1018.49 1018.62 1018.68 1018.71 1018.73 1018.76 1018.83 1018.95 1019.13 1019.38 1019.67 1020.01 1020.36 1020.71 1021.04 1021.35 1021.62 1021.87 1022.09 1022.31 1022.52 1022.75 1022.99 1023.26 1023.54 1023.85 1024.17 1024.52 1024.88 1025.26 1025.65 1026.06 1026.47 1026.87 1027.26 1027.62 1027.93 1028.21 1028.44 1028.63 1028.81
1018.00 1018.29 1018.47 1018.56 1018.57 1018.51 1018.44 1018.37 1018.34 1018.38 1018.49 1018.68 1018.95 1019.27 1019.63 1020.00 1020.36 1020.70 1021.00 1021.28 1021.53 1021.77 1022.02 1022.27 1022.55 1022.85 1023.17 1023.51 1023.86 1024.23 1024.61 1025.00 1025.41 1025.83 1026.27 1026.71 1027.15 1027.57 1027.96 1028.31 1028.60 1028.84 1029.04 1029.20
1018.30 1018.48 1018.54 1018.51 1018.40 1018.24 1018.08 1017.95 1017.88 1017.89 1018.00 1018.19 1018.47 1018.80 1019.17 1019.54 1019.90 1020.23 1020.53 1020.80 1021.07 1021.33 1021.61 1021.91 1022.24 1022.60 1022.98 1023.37 1023.78 1024.18 1024.60 1025.02 1025.45 1025.90 1026.36 1026.83 1027.30 1027.76 1028.18 1028.56 1028.88 1029.14 1029.33 1029.48
1018.47 1018.51 1018.44 1018.29 1018.07 1017.84 1017.61 1017.44 1017.35 1017.35 1017.45 1017.66 1017.94 1018.27 1018.63 1018.99 1019.34 1019.67 1019.97 1020.25 1020.53 1020.83 1021.15 1021.50 1021.89 1022.31 1022.74 1023.18 1023.63 1024.07 1024.52 1024.96 1025.41 1025.88 1026.36 1026.85 1027.35 1027.83 1028.28 1028.68 1029.02 1029.29 1029.49 1029.64
1018.45 1018.34 1018.14 1017.88 1017.58 1017.28 1017.02 1016.83 1016.74 1016.75 1016.86 1017.07 1017.36 1017.70 1018.05 1018.41 1018.75 1019.07 1019.38 1019.68 1019.99 1020.32 1020.69 1021.10 1021.54 1022.01 1022.49 1022.98 1023.46 1023.94 1024.40 1024.86 1025.33 1025.80 1026.29 1026.79 1027.30 1027.79 1028.25 1028.66 1029.01 1029.28 1029.49 1029.64
1018.19 1017.94 1017.63 1017.29 1016.93 1016.61 1016.34 1016.16 1016.08 1016.11 1016.25 1016.47 1016.77 1017.11 1017.46 1017.82 1018.16 1018.49 1018.81 1019.14 1019.49 1019.86 1020.27 1020.73 1021.22 1021.73 1022.25 1022.77 1023.28 1023.78 1024.25 1024.72 1025.19 1025.66 1026.15 1026.65 1027.14 1027.63 1028.08 1028.49 1028.83 1029.11 1029.31 1029.46
1017.69 1017.34 1016.96 1016.56 1016.19 1015.87 1015.62 1015.47 1015.43 1015.49 1015.65 1015.90 1016.21 1016.55 1016.91 1017.27 1017.63 1017.97 1018.31 1018.67 1019.05 1019.47 1019.92 1020.41 1020.93 1021.47 1022.01 1022.55 1023.07 1023.57 1024.05 1024.51 1024.97 1025.44 1025.91 1026.39 1026.87 1027.33 1027.77 1028.15 1028.48 1028.75 1028.95 1029.10
1017.00 1016.60 1016.18 1015.78 1015.43 1015.14 1014.93 1014.83 1014.83 1014.93 1015.13 1015.39 1015.72 1016.07 1016.43 1016.80 1017.17 1017.53 1017.90 1018.28 1018.69 1019.13 1019.61 1020.11 1020.65 1021.19 1021.73 1022.26 1022.78 1023.27 1023.74 1024.19 1024.64 1025.09 1025.55 1026.00 1026.46 1026.89 1027.30 1027.66 1027.97 1028.22 1028.41 1028.57
1016.18 1015.78 1015.38 1015.02 1014.72 1014.49 1014.36 1014.31 1014.36 1014.51 1014.72 1015.01 1015.34 1015.69 1016.07 1016.44 1016.82 1017.19 1017.58 1017.98 1018.40 1018.84 1019.32 1019.82 1020.33 1020.85 1021.37 1021.87 1022.36 1022.83 1023.28 1023.72 1024.15 1024.59 1025.03 1025.47 1025.90 1026.31 1026.69 1027.03 1027.31 1027.56 1027.75 1027.92
1015.30 1014.95 1014.63 1014.35 1014.14 1014.00 1013.94 1013.96 1014.06 1014.24 1014.47 1014.77 1015.10 1015.45 1015.82 1016.19 1016.57 1016.95 1017.34 1017.74 1018.15 1018.58 1019.03 1019.49 1019.96 1020.43 1020.89 1021.35 1021.79 1022.23 1022.65 1023.08 1023.50 1023.93 1024.36 1024.79 1025.21 1025.61 1025.98 1026.30 1026.59 1026.82 1027.03 1027.20
1014.43 1014.18 1013.96 1013.81 1013.71 1013.67 1013.70 1013.79 1013.94 1014.14 1014.39 1014.68 1015.00 1015.34 1015.69 1016.05 1016.42 1016.79 1017.17 1017.55 1017.93 1018.32 1018.72 1019.12 1019.52 1019.92 1020.31 1020.71 1021.10 1021.50 1021.90 1022.31 1022.73 1023.16 1023.59 1024.03 1024.46 1024.86 1025.23 1025.56 1025.85 1026.10 1026.31 1026.51
1013.60 1013.47 1013.39 1013.38 1013.41 1013.49 1013.61 1013.77 1013.96 1014.19 1014.44 1014.71 1015.02 1015.33 1015.67 1016.01 1016.36 1016.71 1017.06 1017.40 1017.74 1018.08 1018.40 1018.73 1019.05 1019.36 1019.68 1020.01 1020.35 1020.71 1021.08 1021.49 1021.91 1022.36 1022.82 1023.27 1023.72 1024.15 1024.54 1024.89 1025.20 1025.46 1025.70 1025.91
1012.80 1012.81 1012.89 1013.02 1013.19 1013.39 1013.61 1013.84 1014.08 1014.32 1014.57 1014.84 1015.12 1015.41 1015.72 1016.04 1016.36 1016.68 1017.00 1017.30 1017.59 1017.86 1018.12 1018.36 1018.60 1018.83 1019.08 1019.34 1019.64 1019.96 1020.33 1020.73 1021.17 1021.64 1022.13 1022.62 1023.09 1023.55 1023.97 1024.35 1024.68 1024.98 1025.23 1025.47
1012.01 1012.17 1012.40 1012.69 1013.00 1013.33 1013.64 1013.94 1014.22 1014.49 1014.75 1015.00 1015.27 1015.54 1015.83 1016.12 1016.42 1016.71 1017.00 1017.26 1017.50 1017.71 1017.90 1018.08 1018.24 1018.41 1018.60 1018.82 1019.07 1019.38 1019.74 1020.15 1020.61 1021.10 1021.62 1022.14 1022.65 1023.14 1023.59 1023.99 1024.35 1024.67 1024.95 1025.19
1011.21 1011.51 1011.90 1012.33 1012.78 1013.22 1013.63 1014.00 1014.33 1014.63 1014.90 1015.16 1015.42 1015.69 1015.96 1016.24 1016.52 1016.79 1017.05 1017.29 1017.49 1017.66 1017.80 1017.93 1018.04 1018.17 1018.31 1018.50 1018.74 1019.04 1019.40 1019.82 1020.29 1020.81 1021.35 1021.89 1022.42 1022.93 1023.40 1023.83 1024.20 1024.53 1024.82 1025.07
1010.40 1010.83 1011.35 1011.92 1012.49 1013.03 1013.54 1013.98 1014.37 1014.70 1015.00 1015.28 1015.55 1015.83 1016.10 1016.38 1016.66 1016.92 1017.17 1017.39 1017.57 1017.72 1017.84 1017.94 1018.03 1018.14 1018.27 1018.44 1018.68 1018.98 1019.34 1019.77 1020.25 1020.77 1021.32 1021.87 1022.41 1022.92 1023.39 1023.82 1024.19 1024.52 1024.80 1025.04
1009.59 1010.13 1010.77 1011.45 1012.12 1012.76 1013.35 1013.86 1014.31 1014.70 1015.04 1015.35 1015.64 1015.94 1016.23 1016.53 1016.82 1017.09 1017.34 1017.56 1017.75 1017.90 1018.01 1018.11 1018.20 1018.31 1018.44 1018.62 1018.86 1019.16 1019.53 1019.96 1020.44 1020.96 1021.49 1022.03 1022.55 1023.04 1023.50 1023.91 1024.26 1024.57 1024.83 1025.05
1008.81 1009.45 1010.18 1010.95 1011.71 1012.43 1013.08 1013.66 1014.16 1014.61 1014.99 1015.35 1015.69 1016.02 1016.35 1016.67 1016.99 1017.28 1017.55 1017.79 1017.99 1018.15 1018.29 1018.40 1018.51 1018.63 1018.79 1018.98 1019.23 1019.54 1019.90 1020.32 1020.79 1021.28 1021.78 1022.28 1022.77 1023.23 1023.64 1024.01 1024.34 1024.62 1024.84 1025.03
1008.13 1008.84 1009.63 1010.46 1011.28 1012.05 1012.76 1013.39 1013.95 1014.45 1014.90 1015.31 1015.69 1016.07 1016.44 1016.80 1017.15 1017.48 1017.77 1018.04 1018.26 1018.45 1018.61 1018.75 1018.88 1019.03 1019.20 1019.41 1019.67 1019.98 1020.34 1020.74 1021.18 1021.63 1022.10 1022.55 1022.99 1023.39 1023.76 1024.08 1024.37 1024.61 1024.80 1024.95
1007.58 1008.34 1009.17 1010.03 1010.87 1011.68 1012.42 1013.10 1013.71 1014.25 1014.75 1015.22 1015.66 1016.09 1016.51 1016.91 1017.30 1017.66 1017.98 1018.27 1018.52 1018.73 1018.92 1019.09 1019.25 1019.42 1019.61 1019.84 1020.10 1020.41 1020.75 1021.13 1021.53 1021.95 1022.36 1022.76 1023.14 1023.49 1023.81 1024.09 1024.33 1024.53 1024.68 1024.79
1007.19 1007.96 1008.80 1009.67 1010.52 1011.34 1012.10 1012.80 1013.44 1014.04 1014.59 1015.11 1015.61 1016.09 1016.55 1016.99 1017.41 1017.80 1018.15 1018.47 1018.73 1018.97 1019.17 1019.36 1019.55 1019.74 1019.95 1020.18 1020.45 1020.75 1021.08 1021.43 1021.79 1022.17 1022.53 1022.88 1023.22 1023.52 1023.79 1024.03 1024.23 1024.39 1024.51 1024.59
1006.93 1007.71 1008.54 1009.38 1010.22 1011.03 1011.79 1012.51 1013.18 1013.81 1014.41 1014.98 1015.53 1016.06 1016.56 1017.04 1017.49 1017.90 1018.27 1018.60 1018.88 1019.13 1019.35 1019.55 1019.75 1019.95 1020.17 1020.41 1020.68 1020.97 1021.29 1021.61 1021.95 1022.29 1022.62 1022.93 1023.22 1023.48 1023.72 1023.92 1024.09 1024.22 1024.32 1024.37
1006.77 1007.53 1008.32 1009.14 1009.95 1010.74 1011.49 1012.22 1012.91 1013.58 1014.22 1014.84 1015.43 1016.00 1016.54 1017.05 1017.52 1017.95 1018.33 1018.67 1018.96 1019.21 1019.44 1019.65 1019.86 1020.07 1020.30 1020.54 1020.81 1021.10 1021.40 1021.71 1022.03 1022.34 1022.64 1022.92 1023.18 1023.42 1023.62 1023.80 1023.95 1024.05 1024.12 1024.15
1006.64 1007.36 1008.12 1008.90 1009.67 1010.44 1011.19 1011.92 1012.63 1013.33 1014.01 1014.67 1015.30 1015.91 1016.48 1017.01 1017.50 1017.94 1018.33 1018.67 1018.96 1019.22 1019.46 1019.67 1019.89 1020.11 1020.35 1020.60 1020.87 1021.15 1021.45 1021.75 1022.05 1022.35 1022.63 1022.89 1023.13 1023.34 1023.52 1023.68 1023.80 1023.88 1023.93 1023.92
1006.46 1007.15 1007.87 1008.60 1009.35 1010.10 1010.84 1011.58 1012.32 1013.04 1013.76 1014.45 1015.12 1015.76 1016.36 1016.91 1017.42 1017.87 1018.26 1018.60 1018.90 1019.17 1019.41 1019.64 1019.87 1020.11 1020.35 1020.61 1020.89 1021.18 1021.47 1021.77 1022.06 1022.34 1022.60 1022.84 1023.06 1023.25 1023.41 1023.54 1023.64 1023.69 1023.71 1023.68
1006.19 1006.84 1007.52 1008.23 1008.95 1009.69 1010.43 1011.19 1011.94 1012.70 1013.45 1014.17 1014.87 1015.54 1016.16 1016.74 1017.25 1017.71 1018.11 1018.47 1018.78 1019.06 1019.32 1019.57 1019.81 1020.06 1020.33 1020.60 1020.89 1021.18 1021.48 1021.77 1022.05 1022.31 1022.55 1022.77 1022.96 1023.13 1023.26 1023.36 1023.42 1023.44 1023.42 1023.35
Thickness
5660 5665 5665 5664 5665 5662 5656 5652 5646 5652 5656 5667 5673 5675 5677 5677 5676 5675 5675 5675 5674 5673 5673 5672 5672 5672 5672 5671 5671 5670 5669 5667 5666 5666 5666 5666 5665 5664 5663 5661 5660 5658 5657 5655
5653 5659 5658 5657 5661 5661 5659 5657 5654 5655 5657 5670 5672 5672 5671 5670 5670 5669 5670 5671 5671 5671 5671 5669 5668 5668 5668 5667 5666 5665 5664 5663 5662 5661 5661 5661 5660 5659 5658 5656 5655 5653 5652 5651
5635 5644 5648 5644 5657 5659 5657 5658 5657 5652 5660 5666 5665 5666 5666 5667 5666 5666 5668 5669 5668 5668 5667 5666 5665 5665 5664 5663 5662 5660 5659 5658 5657 5656 5656 5655 5655 5653 5652 5651 5650 5648 5647 5646
5624 5631 5627 5649 5663 5663 5658 5658 5659 5660 5662 5662 5663 5665 5666 5665 5664 5663 5665 5665 5666 5666 5665 5664 5663 5661 5660 5659 5657 5655 5654 5652 5652 5651 5650 5650 5649 5648 5646 5645 5644 5643 5642 5641
5613 5616 5624 5644 5656 5656 5651 5652 5659 5658 5660 5660 5661 5660 5660 5665 5664 5662 5663 5663 5664 5664 5663 5661 5659 5658 5655 5653 5651 5649 5648 5647 5647 5646 5645 5644 5643 5642 5641 5640 5639 5638 5637 5636
5608 5611 5614 5639 5654 5657 5650 5641 5656 5656 5655 5654 5652 5642 5649 5661 5660 5660 5660 5660 5660 5659 5658 5657 5655 5653 5651 5648 5646 5645 5644 5643 5642 5641 5640 5639 5638 5637 5636 5635 5634 5633 5632 5632
5603 5604 5615 5636 5645 5646 5628 5634 5648 5649 5649 5647 5643 5644 5650 5654 5655 5655 5655 5655 5655 5654 5652 5651 5649 5648 5645 5643 5641 5641 5640 5638 5637 5637 5636 5635 5634 5632 5631 5629 5628 5627 5626 5626
5597 5598 5611 5635 5634 5629 5629 5637 5639 5641 5643 5642 5642 5644 5646 5647 5648 5649 5648 5648 5647 5647 5646 5645 5644 5642 5639 5638 5638 5637 5635 5633 5632 5631 5631 5630 5628 5626 5625 5623 5622 5621 5620 5620
5605 5611 5622 5627 5628 5630 5630 5630 5632 5633 5637 5637 5637 5638 5639 5641 5641 5641 5641 5641 5640 5639 5638 5637 5637 5636 5634 5634 5633 5630 5628 5627 5626 5626 5625 5624 5622 5620 5618 5617 5616 5615 5614 5613
5600 5609 5615 5619 5622 5624 5625 5626 5627 5628 5630 5632 5631 5632 5633 5634 5634 5634 5634 5633 5633 5632 5631 5630 5630 5630 5630 5630 5628 5625 5623 5621 5621 5619 5619 5618 5617 5616 5614 5612 5610 5609 5608 5607
5593 5601 5607 5614 5615 5617 5619 5620 5622 5624 5625 5625 5626 5627 5628 5627 5627 5627 5627 5627 5626 5625 5624 5624 5624 5624 5624 5623 5621 5619 5617 5616 5615 5614 5613 5612 5611 5611 5610 5609 5608 5606 5605 5604
5590 5597 5595 5602 5609 5610 5610 5612 5614 5615 5617 5619 5620 5620 5621 5621 5622 5622 5621 5620 5620 5619 5619 5619 5618 5618 5617 5617 5615 5614 5611 5610 5609 5608 5607 5606 5605 5604 5604 5604 5604 5603 5602 5600
5592 5596 5594 5598 5601 5603 5603 5605 5607 5608 5609 5610 5613 5614 5615 5615 5615 5616 5615 5615 5614 5614 5614 5613 5612 5612 5612 5611 5610 5609 5607 5606 5604 5603 5602 5601 5600 5598 5597 5596 5596 5596 5595 5595
5587 5587 5587 5591 5592 5596 5596 5598 5599 5601 5602 5604 5605 5607 5608 5607 5608 5608 5609 5609 5608 5608 5607 5607 5606 5606 5606 5606 5605 5604 5603 5601 5600 5598 5597 5595 5594 5593 5592 5590 5588 5587 5588 5588
5582 5582 5582 5585 5586 5588 5589 5590 5590 5592 5594 5595 5597 5599 5600 5600 5600 5600 5602 5602 5602 5601 5601 5601 5600 5600 5600 5600 5599 5598 5597 5595 5594 5592 5591 5589 5588 5586 5585 5584 5582 5581 5580 5580
5575 5575 5576 5577 5579 5580 5581 5582 5582 5584 5585 5587 5589 5591 5592 5593 5593 5593 5595 5595 5593 5593 5595 5595 5595 5595 5594 5594 5593 5592 5591 5591 5589 5587 5585 5583 5581 5579 5578 5577 5575 5574 5573 5573
5566 5567 5568 5569 5571 5573 5574 5575 5576 5577 5578 5580 5582 5583 5585 5585 5585 5586 5588 5588 5588 5588 5588 5589 5589 5589 5589 5588 5587 5586 5585 5585 5584 5581 5579 5577 5575 5574 5573 5571 5569 5568 5568 5568
5564 5565 5565 5565 5565 5566 5567 5569 5570 5570 5571 5573 5575 5576 5576 5577 5577 5578 5579 5580 5580 5581 5582 5583 5583 5583 5582 5582 5580 5580 5578 5577 5576 5575 5573 5571 5569 5568 5566 5565 5563 5562 5562 5561
5558 5558 5559 5560 5561 5561 5561 5562 5563 5564 5565 5565 5566 5567 5568 5569 5570 5570 5570 5571 5571 5572 5573 5575 5577 5576 5575 5574 5574 5572 5571 5570 5568 5567 5566 5564 5562 5561 5559 5558 5557 5556 5555 5554
5551 5552 5553 5553 5554 5554 5555 5556 5557 5557 5557 5558 5558 5559 5559 5560 5561 5562 5562 5562 5563 5565 5567 5568 5568 5568 5568 5567 5566 5564 5564 5562 5561 5559 5558 5556 5555 5554 5553 5552 5551 5550 5549 5548
5543 5544 5545 5545 5546 5547 5548 5549 5550 5550 5550 5550 5550 5550 5551 5552 5552 5552 5552 5553 5556 5557 5559 5560 5560 5560 5560 5559 5558 5557 5556 5555 5554 5552 5551 5549 5548 5546 5546 5545 5544 5544 5543 5542
5534 5535 5537 5537 5538 5539 5540 5541 5542 5543 5543 5542 5542 5543 5543 5543 5544 5544 5545 5545 5548 5549 5550 5551 5551 5552 5552 5551 5550 5549 5548 5548 5547 5545 5544 5543 5541 5540 5539 5538 5537 5537 5536 5536
5525 5527 5528 5529 5530 5531 5532 5532 5533 5534 5534 5534 5534 5534 5535 5535 5536 5536 5537 5538 5539 5542 5542 5543 5544 5545 5545 5543 5542 5541 5541 5540 5539 5538 5537 5536 5535 5534 5533 5532 5531 5530 5529 5528
5518 5518 5520 5520 5521 5522 5523 5524 5524 5525 5525 5525 5526 5526 5527 5527 5528 5529 5530 5531 5532 5534 5534 5535 5536 5537 5537 5535 5534 5533 5532 5532 5531 5530 5529 5528 5527 5526 5525 5524 5523 5522 5521 5521
5510 5510 5511 5511 5511 5513 5513 5514 5514 5515 5516 5516 5517 5518 5519 5519 5519 5520 5520 5522 5524 5525 5525 5527 5528 5528 5527 5526 5526 5525 5524 5524 5523 5522 5521 5520 5519 5518 5517 5516 5515 5514 5513 5513
5502 5502 5502 5503 5503 5503 5503 5504 5504 5505 5506 5506 5507 5508 5509 5509 5510 5511 5512 5513 5514 5515 5516 5516 5517 5518 5518 5518 5517 5517 5516 5515 5515 5514 5513 5512 5511 5510 5509 5508 5507 5506 5506 5505
5493 5493 5493 5493 5494 5494 5494 5495 5495 5496 5497 5497 5497 5498 5499 5500 5501 5502 5503 5504 5505 5505 5506 5507 5507 5508 5509 5509 5508 5508 5507 5507 5507 5506 5505 5504 5503 5502 5501 5500 5500 5499 5498 5498